Location: Bathurst
(33.4193°S, 149.5775°E)
Time: 10:18:22
(UTC+10:00)

Vanguard 1 Rocket - Pass Details

Date: 16 June 2021
Orbit: 650 x 4226 km, 34.3° (Epoch: 02 August)

Event Time Altitude Azimuth Distance (km) Brightness Sun altitude
Rises 08:40:01 0° 311° (NW) 8,264 12.2 15.6°
Reaches altitude 10° 08:46:23 10° 314° (NW) 6,939 11.9 16.5°
Maximum altitude 09:06:33 56° 25° (NNE) 2,884 10.9 19.5°
Drops below altitude 10° 09:17:13 10° 99° (E) 3,906 11.1 20.9°
Sets 09:19:42 0° 103° (ESE) 4,565 11.3 21.3°
